TimeEDT,TemperatureF,Dew PointF,Humidity,Sea Level PressureIn,VisibilityMPH,Wind Direction,Wind SpeedMPH,Gust SpeedMPH,PrecipitationIn,Events,Conditions,WindDirDegrees,DateUTC
12:09 AM,66.2,62.6,88,30.04,10.0,Calm,Calm,-,N/A,,Overcast,0,2013-08-29 04:09:00
12:19 AM,66.2,62.6,88,30.04,10.0,Calm,Calm,-,N/A,,Overcast,0,2013-08-29 04:19:00
12:51 AM,64.9,62.1,90,30.04,10.0,South,5.8,-,N/A,,Clear,180,2013-08-29 04:51:00
1:51 AM,63.0,60.1,90,30.02,10.0,SSE,4.6,-,N/A,,Clear,160,2013-08-29 05:51:00
2:51 AM,61.0,59.0,93,30.02,10.0,Calm,Calm,-,N/A,,Clear,0,2013-08-29 06:51:00
3:51 AM,59.0,57.0,93,30.03,10.0,Calm,Calm,-,N/A,,Clear,0,2013-08-29 07:51:00
4:51 AM,59.0,59.0,100,30.04,10.0,SSE,3.5,-,N/A,,Clear,160,2013-08-29 08:51:00
5:43 AM,60.8,59.0,94,30.08,10.0,Calm,Calm,-,N/A,,Mostly Cloudy,0,2013-08-29 09:43:00
5:51 AM,60.1,60.1,100,30.08,10.0,Calm,Calm,-,N/A,,Overcast,0,2013-08-29 09:51:00
6:44 AM,62.6,60.8,94,30.10,10.0,Calm,Calm,-,N/A,,Overcast,0,2013-08-29 10:44:00
6:51 AM,63.0,61.0,93,30.09,10.0,Calm,Calm,-,N/A,,Overcast,0,2013-08-29 10:51:00
7:39 AM,62.6,60.8,94,30.11,10.0,NE,3.5,-,N/A,,Overcast,50,2013-08-29 11:39:00
7:51 AM,62.1,61.0,96,30.11,10.0,Calm,Calm,-,N/A,,Overcast,0,2013-08-29 11:51:00
8:51 AM,66.0,61.0,84,30.12,10.0,SSE,5.8,-,N/A,,Overcast,160,2013-08-29 12:51:00
9:04 AM,66.2,60.8,83,30.12,10.0,South,6.9,-,N/A,,Overcast,170,2013-08-29 13:04:00
9:30 AM,66.2,60.8,83,30.13,10.0,South,8.1,-,N/A,,Overcast,170,2013-08-29 13:30:00
9:51 AM,66.9,61.0,81,30.12,10.0,South,8.1,-,N/A,,Overcast,180,2013-08-29 13:51:00
10:04 AM,68.0,60.8,78,30.13,10.0,South,8.1,-,N/A,,Overcast,180,2013-08-29 14:04:00
10:33 AM,68.0,60.8,78,30.13,10.0,South,8.1,-,N/A,,Overcast,190,2013-08-29 14:33:00
10:51 AM,69.1,61.0,75,30.12,10.0,Variable,4.6,-,N/A,,Overcast,0,2013-08-29 14:51:00
11:16 AM,69.8,60.8,73,30.12,10.0,South,9.2,-,N/A,,Overcast,180,2013-08-29 15:16:00
11:29 AM,69.8,60.8,73,30.12,10.0,South,11.5,-,N/A,,Overcast,170,2013-08-29 15:29:00
11:51 AM,70.0,60.1,71,30.11,10.0,South,6.9,-,N/A,,Overcast,190,2013-08-29 15:51:00
12:46 PM,71.6,60.8,69,30.12,10.0,Variable,3.5,-,N/A,,Overcast,0,2013-08-29 16:46:00
12:51 PM,71.1,61.0,70,30.12,10.0,Variable,4.6,-,N/A,,Overcast,0,2013-08-29 16:51:00
1:51 PM,72.0,61.0,68,30.10,10.0,South,3.5,-,0.00,,Overcast,180,2013-08-29 17:51:00
2:51 PM,73.9,61.0,64,30.08,10.0,SSE,6.9,-,N/A,,Partly Cloudy,160,2013-08-29 18:51:00
3:51 PM,75.0,62.1,64,30.07,10.0,Calm,Calm,-,N/A,,Partly Cloudy,0,2013-08-29 19:51:00
4:51 PM,73.9,61.0,64,30.06,10.0,Variable,3.5,-,N/A,,Clear,0,2013-08-29 20:51:00
5:51 PM,75.0,61.0,62,30.04,10.0,SSE,4.6,-,N/A,,Mostly Cloudy,150,2013-08-29 21:51:00
6:51 PM,70.0,62.1,76,30.05,10.0,South,5.8,-,N/A,,Mostly Cloudy,190,2013-08-29 22:51:00
7:51 PM,69.1,61.0,75,30.07,10.0,South,4.6,-,N/A,,Overcast,190,2013-08-29 23:51:00
8:14 PM,69.8,62.6,78,30.08,10.0,Calm,Calm,-,N/A,,Overcast,0,2013-08-30 00:14:00
8:44 PM,66.2,62.6,88,30.09,2.5,SSW,4.6,-,0.06,Rain,Heavy Rain,200,2013-08-30 00:44:00
8:51 PM,66.0,63.0,90,30.08,4.0,Calm,Calm,-,0.07,Rain,Light Rain,0,2013-08-30 00:51:00
9:51 PM,64.0,62.1,93,30.07,10.0,Calm,Calm,-,0.00,,Clear,0,2013-08-30 01:51:00
10:51 PM,63.0,61.0,93,30.06,10.0,South,4.6,-,N/A,,Mostly Cloudy,180,2013-08-30 02:51:00
11:51 PM,64.0,62.1,93,30.07,10.0,Calm,Calm,-,N/A,,Overcast,0,2013-08-30 03:51:00